This is the latest recevied weather packets stored in our database for station/object KA3RQR. If no packets are shown the sender has not sent any weather packets the latest 1 day(s).
| Time | Temp. | Humidity | Pressure | Rain* | Wind** | Luminosity | Snow |
|---|---|---|---|---|---|---|---|
| 1778029866 | 23.89° C | 40% | 1010.7 hPa | 0 mm | 0.45 m/s, 169° | 0 W/m² | - |
| 1778029560 | 23.89° C | 40% | 1010.4 hPa | 0 mm | 0.89 m/s, 174° | 0 W/m² | - |
| 1778029256 | 23.89° C | 39% | 1010.2 hPa | 0 mm | 0.45 m/s, 130° | 0 W/m² | - |
| 1778028954 | 23.89° C | 39% | 1010 hPa | 0 mm | 2.24 m/s, 109° | 0 W/m² | - |
| 1778028649 | 23.89° C | 39% | 1010.1 hPa | 0 mm | 0.89 m/s, 139° | 0 W/m² | - |
| 1778028347 | 23.89° C | 39% | 1010.2 hPa | 0 mm | 0.45 m/s, 163° | 0 W/m² | - |
| 1778028047 | 24.44° C | 38% | 1010.2 hPa | 0 mm | 0 m/s | 0 W/m² | - |
| 1778027740 | 24.44° C | 37% | 1010 hPa | 0 mm | 3.13 m/s, 171° | 0 W/m² | - |
| 1778027436 | 24.44° C | 37% | 1010.1 hPa | 0 mm | 1.34 m/s, 129° | 0 W/m² | - |
| 1778027132 | 24.44° C | 37% | 1010.1 hPa | 0 mm | 0.89 m/s, 153° | 0 W/m² | - |
| 1778026828 | 24.44° C | 36% | 1009.8 hPa | 0 mm | 0.89 m/s, 113° | 0 W/m² | - |
| 1778026524 | 25° C | 35% | 1009.9 hPa | 0 mm | 0.89 m/s, 155° | 0 W/m² | - |
| 1778026222 | 25° C | 35% | 1009.7 hPa | 0 mm | 1.34 m/s, 132° | 0 W/m² | - |
| 1778025919 | 25° C | 34% | 1009.7 hPa | 0 mm | 0.45 m/s, 155° | 0 W/m² | - |
| 1778025617 | 25° C | 34% | 1009.9 hPa | 0 mm | 1.79 m/s, 156° | 1 W/m² | - |
| 1778025315 | 25° C | 33% | 1009.6 hPa | 0 mm | 1.34 m/s, 156° | 2 W/m² | - |
| 1778025011 | 25° C | 35% | 1009.7 hPa | 0 mm | 0.45 m/s, 138° | 3 W/m² | - |
| 1778024708 | 25.56° C | 33% | 1009.6 hPa | 0 mm | 0.45 m/s, 171° | 5 W/m² | - |
| 1778024405 | 25.56° C | 33% | 1009.7 hPa | 0 mm | 0.45 m/s, 136° | 6 W/m² | - |
| 1778024102 | 25.56° C | 32% | 1009.7 hPa | 0 mm | 0.89 m/s, 127° | 9 W/m² | - |
| 1778023800 | 25.56° C | 35% | 1009.6 hPa | 0 mm | 0.89 m/s, 217° | 16 W/m² | - |
| 1778023498 | 25.56° C | 33% | 1009.4 hPa | 0 mm | 0.89 m/s, 162° | 26 W/m² | - |
| 1778023194 | 26.11° C | 34% | 1009.6 hPa | 0 mm | 0.45 m/s, 178° | 36 W/m² | - |
| 1778022892 | 26.11° C | 34% | 1009.6 hPa | 0 mm | 0.45 m/s, 123° | 35 W/m² | - |
| 1778022590 | 26.11° C | 33% | 1009.6 hPa | 0 mm | 2.24 m/s, 167° | 31 W/m² | - |
* Rain latest hour (hover to see other rain measurements)
** Current wind speed in m/s (hover to see current wind gust speed)